JR6GUC-13 Weather Reports


Display with metric or nautical units.
time (UTC)temp
F
wind
direction
speed
MPH
gust
MPH
rain 1hr
in
rain 24hr
in
rain mn
in
humidity
%
barometer
mb
20260504100537 63 326 9.0 0.0 0.00 0.00 0.00 40 1012.7
20260504081608 64 323 12.0 0.0 0.00 0.00 0.00 42 1012.0
20260504081051 64 323 13.0 0.0 0.00 0.00 0.00 41 1012.0
20260504080557 64 310 12.0 0.0 0.00 0.00 0.00 41 1011.9
20260504080104 64 336 13.0 0.0 0.00 0.00 0.00 43 1011.9
20260504050604 63 307 17.0 0.0 0.00 0.00 0.00 52 1012.1
20260504045553 63 305 16.0 0.0 0.00 0.00 0.00 54 1012.1
20260504045035 63 328 17.0 0.0 0.00 0.00 0.00 54 1011.8
20260504044541 63 349 17.0 0.0 0.00 0.00 0.00 55 1011.8
20260504044030 64 353 15.0 0.0 0.00 0.00 0.00 54 1011.8
20260504043535 64 346 14.0 0.0 0.00 0.00 0.00 54 1011.7
20260504043042 63 311 15.0 0.0 0.00 0.00 0.00 56 1011.7
20260504042529 63 299 15.0 0.0 0.00 0.00 0.00 52 1011.7
20260504042030 63 347 15.0 0.0 0.00 0.00 0.00 56 1011.8
20260504041537 63 323 17.0 0.0 0.00 0.00 0.00 55 1011.8
20260504041104 63 360 16.0 0.0 0.00 0.00 0.00 56 1011.8
20260504040527 63 298 15.0 0.0 0.00 0.00 0.00 58 1011.8
20260504040035 63 360 16.0 0.0 0.00 0.00 0.00 59 1011.8
20260504035543 63 349 17.0 0.0 0.00 0.00 0.00 56 1011.8
20260504035049 64 305 16.0 0.0 0.00 0.00 0.00 59 1011.8
20260504034536 64 335 16.0 0.0 0.00 0.00 0.00 56 1011.8
20260504034039 64 345 17.0 0.0 0.00 0.00 0.00 59 1011.8
20260504033542 64 320 18.0 0.0 0.00 0.00 0.00 55 1011.8
20260504033029 64 347 18.0 0.0 0.00 0.00 0.00 58 1011.8
20260504032537 64 281 18.0 0.0 0.00 0.00 0.00 59 1011.8
20260504032041 64 327 18.0 0.0 0.00 0.00 0.00 59 1011.8
20260504031526 64 309 18.0 0.0 0.00 0.00 0.00 58 1011.8
20260504031033 64 358 19.0 0.0 0.00 0.00 0.00 61 1011.8
20260504030554 64 330 18.0 0.0 0.00 0.00 0.00 59 1011.7
20260504030100 64 8 16.0 0.0 0.00 0.00 0.00 61 1011.7
20260504025554 64 335 17.0 0.0 0.00 0.00 0.00 61 1011.7
20260504025030 64 311 17.0 0.0 0.00 0.00 0.00 61 1011.6
20260504024536 64 309 17.0 0.0 0.00 0.00 0.00 60 1011.6
20260504024051 64 343 17.0 0.0 0.00 0.00 0.00 63 1011.6
20260504023555 64 360 17.0 0.0 0.00 0.00 0.00 62 1011.6
20260504023042 64 349 17.0 0.0 0.00 0.00 0.00 61 1011.6
20260504022544 64 311 16.0 0.0 0.00 0.00 0.00 61 1011.6
20260504022048 65 316 14.0 0.0 0.00 0.00 0.00 62 1011.3
20260504021552 64 326 14.0 0.0 0.00 0.00 0.00 64 1011.3
20260504021038 64 356 15.0 0.0 0.00 0.00 0.00 64 1011.3
20260504020542 64 320 16.0 0.0 0.00 0.00 0.00 62 1011.2
20260504020110 64 344 19.0 0.0 0.00 0.00 0.00 62 1011.2
20260504015535 64 330 18.0 0.0 0.00 0.00 0.00 62 1011.2
20260504015035 64 337 18.0 0.0 0.00 0.00 0.00 62 1011.3
20260504014543 64 344 19.0 0.0 0.00 0.00 0.00 65 1011.3
20260504014030 64 354 17.0 0.0 0.00 0.00 0.00 63 1011.3
20260504013532 64 333 16.0 0.0 0.00 0.00 0.00 62 1011.5
20260504013038 64 342 18.0 0.0 0.00 0.00 0.00 62 1011.5
20260504012544 63 340 19.0 0.0 0.00 0.00 0.00 62 1011.4
20260504012051 63 304 19.0 0.0 0.00 0.00 0.00 62 1011.7
20260504011536 63 360 18.0 0.0 0.00 0.00 0.00 62 1011.7
20260504011038 63 310 18.0 0.0 0.00 0.00 0.00 62 1011.7
20260504010539 63 338 19.0 0.0 0.00 0.00 0.00 64 1011.3
20260504010104 64 299 18.0 0.0 0.00 0.00 0.00 64 1011.3
20260504005550 64 338 16.0 0.0 0.00 0.00 0.00 63 1011.3
20260504005055 64 360 18.0 0.0 0.00 0.00 0.00 63 1011.3
20260504004602 64 356 19.0 0.0 0.00 0.00 0.00 64 1011.3
20260504004047 64 299 18.0 0.0 0.00 0.00 0.00 62 1011.3
20260504003606 64 331 18.0 0.0 0.00 0.00 0.00 65 1011.3
20260504003053 64 325 18.0 0.0 0.00 0.00 0.00 64 1011.3
20260504002535 64 310 17.0 0.0 0.00 0.00 0.00 63 1011.3
20260504002037 64 347 17.0 0.0 0.00 0.00 0.00 66 1011.1
20260504001542 64 325 17.0 0.0 0.00 0.00 0.00 68 1011.1
20260504001057 64 319 15.0 0.0 0.00 0.00 0.00 68 1011.1
20260504000551 64 325 15.0 0.0 0.00 0.00 0.00 67 1010.6
20260504000032 64 328 16.0 0.0 0.00 0.00 0.00 66 1010.6
20260503235608 64 304 18.0 0.0 0.00 0.00 0.00 64 1010.6
20260503235050 64 316 17.0 0.0 0.00 0.00 0.00 62 1010.7
20260503234529 65 317 17.0 0.0 0.00 0.00 0.00 63 1010.7
20260503234043 65 330 18.0 0.0 0.00 0.00 0.00 59 1010.7
20260503233546 65 310 18.0 0.0 0.00 0.00 0.00 58 1010.3
20260503233053 64 321 16.0 0.0 0.00 0.00 0.00 59 1010.3
20260503232538 65 304 15.0 0.0 0.00 0.00 0.00 57 1010.3
20260503232037 65 321 18.0 0.0 0.00 0.00 0.00 59 1009.7
20260503231544 65 353 18.0 0.0 0.00 0.00 0.00 62 1009.7
20260503231052 65 325 15.0 0.0 0.00 0.00 0.00 66 1009.7
20260503230534 65 358 15.0 0.0 0.00 0.00 0.00 67 1009.5
20260503230041 65 306 15.0 0.0 0.00 0.00 0.00 68 1009.5
20260503225529 65 333 14.0 0.0 0.00 0.00 0.00 65 1009.5
20260503225032 66 327 14.0 0.0 0.00 0.00 0.00 63 1009.2
20260503224535 66 309 15.0 0.0 0.00 0.00 0.00 62 1009.2
20260503224040 65 316 16.0 0.0 0.00 0.00 0.00 61 1009.2
20260503223545 65 332 15.0 0.0 0.00 0.00 0.00 61 1009.0
20260503223030 65 330 14.0 0.0 0.00 0.00 0.00 63 1009.0
20260503222536 65 299 13.0 0.0 0.00 0.00 0.00 63 1009.0
20260503222039 65 313 13.0 0.0 0.00 0.00 0.00 65 1008.7
20260503221541 65 358 13.0 0.0 0.00 0.00 0.00 65 1008.7
20260503221042 65 307 13.0 0.0 0.00 0.00 0.00 66 1008.7
20260503220544 65 298 11.0 0.0 0.00 0.00 0.00 65 1008.2
20260503220030 64 319 11.0 0.0 0.00 0.00 0.00 65 1008.2
20260503215555 64 320 12.0 0.0 0.00 0.00 0.00 64 1008.2
20260503215037 64 314 12.0 0.0 0.00 0.00 0.00 65 1007.8
20260503214543 64 281 13.0 0.0 0.00 0.00 0.00 66 1007.8
20260503214050 64 297 13.0 0.0 0.00 0.00 0.00 65 1007.8
20260503213554 64 309 13.0 0.0 0.00 0.00 0.00 65 1007.7
20260503213036 64 307 13.0 0.0 0.00 0.00 0.00 65 1007.7
20260503212611 64 312 14.0 0.0 0.00 0.00 0.00 65 1007.7
20260503212053 64 326 14.0 0.0 0.00 0.00 0.00 65 1007.4
20260503211529 64 345 13.0 0.0 0.00 0.00 0.00 67 1007.4
20260503211041 64 333 12.0 0.0 0.00 0.00 0.00 70 1007.4
20260503210545 64 309 9.0 0.0 0.00 0.00 0.00 72 1007.2
20260503210053 64 333 9.0 0.0 0.00 0.00 0.00 76 1007.2
20260503205534 64 275 12.0 0.0 0.00 0.00 0.00 79 1007.2
20260503205033 64 311 13.0 0.0 0.00 0.00 0.00 78 1007.2
20260503204601 64 321 12.0 0.0 0.00 0.00 0.00 79 1007.2
20260503204044 64 358 12.0 0.0 0.00 0.00 0.00 79 1007.2
20260503203606 64 319 12.0 0.0 0.00 0.00 0.00 79 1006.7
20260503203054 64 324 12.0 0.0 0.00 0.00 0.00 80 1006.7
20260503202539 64 321 12.0 0.0 0.00 0.00 0.00 79 1006.7
20260503202040 64 335 12.0 0.0 0.00 0.00 0.00 79 1006.7
20260503201545 65 350 12.0 0.0 0.00 0.00 0.00 76 1006.7
20260503201032 65 283 12.0 0.0 0.00 0.00 0.00 70 1006.7
20260503200535 65 324 12.0 0.0 0.00 0.00 0.00 70 1006.6
20260503200041 65 277 12.0 0.0 0.00 0.00 0.00 71 1006.6
20260503195530 65 314 10.0 0.0 0.00 0.00 0.00 72 1006.6
20260503195035 65 311 11.0 0.0 0.00 0.00 0.00 73 1006.6
20260503194543 65 315 11.0 0.0 0.00 0.00 0.00 73 1006.6
20260503194108 65 307 10.0 0.0 0.00 0.00 0.00 73 1006.6
20260503193552 65 305 11.0 0.0 0.00 0.00 0.00 73 1006.3
20260503193039 65 280 11.0 0.0 0.00 0.00 0.00 74 1006.3
20260503192546 65 278 12.0 0.0 0.00 0.00 0.00 73 1006.3
20260503192029 65 308 13.0 0.0 0.00 0.00 0.00 73 1005.9
20260503191537 65 320 12.0 0.0 0.00 0.00 0.00 73 1005.9
20260503191045 65 310 12.0 0.0 0.00 0.00 0.00 73 1005.9
20260503190529 65 296 12.0 0.0 0.00 0.00 0.00 72 1005.9
20260503190033 65 300 13.0 0.0 0.00 0.00 0.00 71 1005.9
20260503185540 65 316 14.0 0.0 0.00 0.00 0.00 71 1005.9
20260503185106 65 320 14.0 0.0 0.00 0.00 0.00 73 1005.8
20260503184531 65 276 14.0 0.0 0.00 0.00 0.00 73 1005.8
20260503184038 65 326 12.0 0.0 0.00 0.00 0.00 72 1005.8
20260503183543 65 320 11.0 0.0 0.00 0.00 0.00 73 1006.1
20260503183032 65 314 11.0 0.0 0.00 0.00 0.00 73 1006.1
20260503182536 65 323 11.0 0.0 0.00 0.00 0.00 73 1006.1
20260503182040 65 330 12.0 0.0 0.00 0.00 0.00 73 1005.6
20260503181528 65 328 13.0 0.0 0.00 0.00 0.00 71 1005.6
20260503181055 65 314 13.0 0.0 0.00 0.00 0.00 72 1005.6
20260503180538 65 325 13.0 0.0 0.00 0.00 0.00 73 1005.6
20260503180047 65 288 15.0 0.0 0.00 0.00 0.00 73 1005.6
20260503175532 65 311 14.0 0.0 0.00 0.00 0.00 73 1005.6
20260503175036 65 293 15.0 0.0 0.00 0.00 0.00 76 1005.6
20260503174601 65 347 15.0 0.0 0.00 0.00 0.00 77 1005.6
20260503174046 65 314 13.0 0.0 0.00 0.00 0.00 78 1005.6
20260503173530 65 288 10.0 0.0 0.00 0.00 0.00 79 1005.6
20260503173036 65 328 9.0 0.0 0.00 0.00 0.00 79 1005.6
20260503172552 65 311 12.0 0.0 0.00 0.00 0.00 79 1005.6
20260503172027 65 319 14.0 0.0 0.00 0.00 0.00 79 1005.6
20260503171533 65 313 13.0 0.0 0.00 0.00 0.00 77 1005.6
20260503171037 65 315 11.0 0.0 0.00 0.00 0.00 77 1005.6
20260503170548 65 332 8.0 0.0 0.00 0.00 0.00 78 1005.8
20260503150536 65 329 8.0 0.0 0.00 0.00 1.39 81 1005.4
20260503131035 66 285 7.0 0.0 0.00 0.00 1.39 87 1005.4
20260503130539 66 303 5.0 0.0 0.00 0.00 1.39 87 1005.1
20260503110548 66 304 10.0 0.0 0.00 0.00 1.39 92 1003.1